This demonstration page uses our WeatherBlox Daily Observations layout. Learn more.

40.92945, -100.16068

Hourly Observations for June 28, 2017

Temp ( °F °C ) Dew Point ( °F °C ) Humidity (%) Winds ( mph kmh ) Pressure ( in mb ) Visibility ( mi km ) Precip ( " mm )
12:15 am 00:15 Cloudy with Light Rain 66 19.1 62 16.7 86 86 NW 6 9 29.71 1006 10 16.0934 0 0
12:35 am 00:35 Cloudy 67 19.3 63 17.2 88 88 E 12 19 29.65 1004 5 8.0467 0.05 1.27
12:55 am 00:55 Mostly Cloudy with Nearby Thunderstorms 70 21.1 63 17.3 79 79 N 6 9 29.62 1003 10 16.0934 0.05 1.27
1:15 am 01:15 Mostly Cloudy with Light Rain 69 20.3 62 16.9 81 81 NNE 10 17 29.68 1005 10 16.0934 0.01 0.254
1:35 am 01:35 Clear 67 19.6 62 16.5 82 82 SE 5 7 29.68 1005 10 16.0934 0.01 0.254
1:55 am 01:55 Mostly Cloudy 67 19.5 62 16.9 85 85 W 5 7 29.68 1005 10 16.0934 0.01 0.254
2:15 am 02:15 Partly Cloudy with Nearby Thunderstorms 66 19 62 16.8 87 87 SE 7 11 29.65 1004 10 16.0934 0 0
2:35 am 02:35 Clear 66 19.1 64 17.5 91 91 Calm 29.65 1004 10 16.0934 0 0
2:55 am 02:55 Clear 66 19.1 63 17 88 88 WNW 5 7 29.65 1004 10 16.0934 0 0
3:15 am 03:15 Clear 66 18.8 62 16.8 88 88 WSW 3 6 29.65 1004 10 16.0934 0 0
3:35 am 03:35 Clear 65 18.5 62 16.7 89 89 Calm 29.65 1004 10 16.0934 0 0
3:55 am 03:55 Clear 65 18.1 62 16.5 90 90 Calm 29.62 1003 10 16.0934 0 0
4:15 am 04:15 Clear 64 17.6 61 16.1 91 91 N 7 11 29.62 1003 10 16.0934 0 0
4:35 am 04:35 Clear 64 17.5 61 16.2 92 92 NNW 7 11 29.65 1004 10 16.0934 0 0
4:55 am 04:55 Clear 63 17.2 60 15.8 92 92 NW 6 9 29.65 1004 10 16.0934 0 0
5:15 am 05:15 Clear 62 16.7 60 15.5 93 93 W 7 11 29.68 1005 10 16.0934 0 0
5:35 am 05:35 Clear 62 16.7 60 15.5 93 93 Calm 29.68 1005 10 16.0934 0 0
5:55 am 05:55 Clear 62 16.5 59 15.2 92 92 Calm 29.68 1005 7 11.26538 0 0
6:15 am 06:15 Sunny 62 16.6 60 15.3 92 92 Calm 29.68 1005 7 11.26538 0 0
6:35 am 06:35 Sunny with Mist and Fog 61 16.3 59 15.1 93 93 Calm 29.68 1005 4 6.43736 0 0
6:55 am 06:55 Sunny with Mist and Fog 62 16.5 60 15.5 94 94 WNW 3 6 29.68 1005 5 8.0467 0 0
7:15 am 07:15 Sunny 64 17.5 61 16.3 93 93 Calm 29.65 1004 7 11.26538 0.01 0.254
7:35 am 07:35 Sunny 66 18.8 63 17 89 89 WSW 5 7 29.65 1004 10 16.0934 0.01 0.254
7:55 am 07:55 Sunny 69 20.3 63 17.1 82 82 W 6 9 29.68 1005 10 16.0934 0.01 0.254
8:15 am 08:15 Sunny 70 21.2 64 17.5 80 80 WNW 9 15 29.65 1004 10 16.0934 0 0
8:35 am 08:35 Sunny 70 21.2 63 17.1 78 78 WNW 10 17 29.65 1004 10 16.0934 0 0
8:55 am 08:55 Sunny 70 21.3 62 16.9 76 76 WNW 7 11 29.65 1004 10 16.0934 0 0
9:15 am 09:15 Sunny 72 22 63 17.3 75 75 WNW 9 15 29.65 1004 10 16.0934 0 0
9:35 am 09:35 Sunny 73 22.6 64 17.6 73 73 WNW 7 11 29.65 1004 10 16.0934 0 0
9:55 am 09:55 Sunny 75 23.7 63 17.4 68 68 W 9 15 29.65 1004 10 16.0934 0 0
10:15 am 10:15 Sunny 75 24.1 62 16.8 64 64 WNW 10 17 29.65 1004 10 16.0934 0 0
10:35 am 10:35 Sunny 76 24.4 61 16.2 60 60 WNW 9 15 29.65 1004 10 16.0934 0 0
10:55 am 10:55 Sunny 77 24.9 62 16.4 59 59 WNW 9 15 29.62 1003 10 16.0934 0 0
11:15 am 11:15 Sunny 78 25.5 62 16.6 58 58 NNW 7 11 29.62 1003 10 16.0934 0 0
11:35 am 11:35 Sunny 79 26.2 61 16.1 54 54 NW 9 15 29.62 1003 10 16.0934 0 0
11:55 am 11:55 Sunny 81 27.2 58 14.7 46 46 NW 9 15 29.62 1003 10 16.0934 0 0
12:15 pm 12:15 Sunny 81 27.4 59 15 47 47 NW 12 19 29.62 1003 10 16.0934 0 0
12:35 pm 12:35 Sunny 82 27.7 59 15.1 46 46 NW 9 15 29.62 1003 10 16.0934 0 0
12:55 pm 12:55 Sunny 82 28 60 15.4 46 46 NW 10 17 29.62 1003 10 16.0934 0 0
1:15 pm 13:15 Sunny 83 28.1 59 15 45 45 NW 10 17 29.59 1002 10 16.0934 0 0
1:35 pm 13:35 Sunny 83 28.6 58 14.5 42 42 NW 8 13 29.59 1002 10 16.0934 0 0
1:55 pm 13:55 Sunny 84 29 58 14.5 41 41 NNW 7 11 29.59 1002 10 16.0934 0 0
2:15 pm 14:15 Sunny 85 29.5 57 13.8 38 38 WNW 7 11 29.59 1002 10 16.0934 0 0
2:35 pm 14:35 Sunny 85 29.7 55 13 36 36 WNW 12 19 29.59 1002 10 16.0934 0 0
2:55 pm 14:55 Sunny 85 29.6 56 13.1 36 36 NW 8 13 29.56 1001 10 16.0934 0 0
3:15 pm 15:15 Sunny 87 30.3 53 11.5 31 31 WNW 9 15 29.56 1001 10 16.0934 0 0
3:35 pm 15:35 Sunny 87 30.5 54 12.4 33 33 WNW 7 11 29.56 1001 10 16.0934 0 0
3:55 pm 15:55 Sunny 88 31 54 12 31 31 W 5 7 29.56 1001 10 16.0934 0 0
4:15 pm 16:15 Sunny 87 30.8 54 12.1 32 32 WNW 8 13 29.56 1001 10 16.0934 0 0
4:35 pm 16:35 Sunny 88 31 53 11.9 31 31 Calm 29.56 1001 10 16.0934 0 0
4:55 pm 16:55 Sunny 88 31.2 54 12 31 31 WNW 5 7 29.56 1001 10 16.0934 0 0
5:15 pm 17:15 Sunny 88 31.2 52 11.1 29 29 WSW 5 7 29.56 1001 10 16.0934 0 0
5:35 pm 17:35 Sunny 89 31.6 54 12 30 30 SW 5 7 29.53 1000 10 16.0934 0 0
5:55 pm 17:55 Sunny 89 31.4 52 11.2 29 29 Calm 29.56 1001 10 16.0934 0 0
6:15 pm 18:15 Sunny 88 31.3 52 10.9 28 28 Calm 29.5 999 10 16.0934 0 0
6:35 pm 18:35 Sunny 88 31 53 11.9 31 31 S 3 6 29.53 1000 10 16.0934 0 0
6:55 pm 18:55 Sunny 88 31.3 53 11.7 30 30 S 5 7 29.56 1001 10 16.0934 0 0
7:15 pm 19:15 Sunny 85 29.6 57 13.7 38 38 SSE 6 9 29.56 1001 10 16.0934 0 0
7:35 pm 19:35 Sunny 84 28.7 63 17.2 50 50 SSE 5 7 29.56 1001 10 16.0934 0 0
7:55 pm 19:55 Sunny 82 28 65 18.4 56 56 Calm 29.56 1001 10 16.0934 0 0
8:15 pm 20:15 Sunny 83 28.2 63 17 51 51 SSE 5 7 29.59 1002 10 16.0934 0 0
8:35 pm 20:35 Sunny 82 27.7 64 17.6 54 54 S 6 9 29.62 1003 10 16.0934 0 0
8:55 pm 20:55 Sunny 79 26.3 66 19 64 64 SE 3 6 29.59 1002 10 16.0934 0 0
9:15 pm 21:15 Clear 79 26 63 17.3 59 59 E 5 7 29.59 1002 10 16.0934 0 0
9:35 pm 21:35 Clear 78 25.3 63 17.2 61 61 SE 6 9 29.62 1003 10 16.0934 0 0
9:55 pm 21:55 Clear 77 24.9 64 17.9 65 65 SSE 7 11 29.62 1003 10 16.0934 0 0
10:15 pm 22:15 Clear 77 25.1 63 17 61 61 SE 7 11 29.62 1003 10 16.0934 0 0
10:35 pm 22:35 Clear 76 24.7 63 17.1 63 63 SE 8 13 29.59 1002 10 16.0934 0 0
10:55 pm 22:55 Clear 78 25.4 61 16.3 57 57 SE 6 9 29.62 1003 10 16.0934 0 0
11:15 pm 23:15 Clear 77 24.9 62 16.7 60 60 E 7 11 29.59 1002 10 16.0934 0 0
11:35 pm 23:35 Clear 76 24.5 62 16.5 61 61 E 6 9 29.59 1002 10 16.0934 0 0
11:55 pm 23:55 Clear 73 22.5 65 18.6 79 79 NNW 12 19 29.68 1005 10 16.0934 0 0

Powered by AerisWeather